Tracking 21155 objects as of 15-Aug-2020
HD Live streaming from Space Station
objects crossing your sky now

PSLV DEB


PSLV DEB is no longer on orbit


NORAD ID: 35347
Int'l Code: 2001-049QF
Perigee: N/A
Apogee: N/A
Inclination: N/A
Period: N/A
Semi major axis: N/A
RCS: N/A
Launch date: October 22, 2001
Source: India (IND)
Launch site: SRIHARIKOTA (SRI)
Decay date: 2020-04-30

Note: This is SATELLITE DEBRIS
aabbcc
Your satellite tracking list
Your tracking list is empty




NASA's NSSDC Master Catalog

Two Line Element Set (TLE):
1 35347U 01049QF  20120.60943004  .04983658  29915-5  30062-2 0  9994
2 35347  98.3284 182.3323 0013093 259.9683 100.0125 16.18118446906776
Source of the keplerian elements: AFSPC